Location: Poughquag
(41.6090°N, 73.6820°W)
Time: 12:42:14
(UTC-04:00)

Tiros 1 despin weight - Pass Details

Date: 30 May 2020
Orbit: 593 x 642 km, 48.2° (Epoch: 07 July)

Event Time Altitude Azimuth Distance (km) Brightness Sun altitude
Rises 15:52:28 0° 296° (WNW) 2,884 ? 47.6°
Reaches altitude 10° 15:54:50 10° 301° (WNW) 1,968 ? 47.2°
Maximum altitude 15:59:16 55° 20° (NNE) 733 ? 46.4°
Drops below altitude 10° 16:03:38 10° 98° (E) 1,936 ? 45.6°
Sets 16:05:57 0° 103° (ESE) 2,831 ? 45.1°
